Rockwall, TX

3:42 PM CST on November 17, 2017 (GMT -0600)
Rockwall

Weather History for KF46 - November, 2012

Change the Weather History Date:

Tuesday, November 20, 2012

  Actual Average (KDFW) Record (KDFW)
Temperature  
Mean Temperature 66 °F -  
Max Temperature 79 °F 63 °F 84 °F (2007)
Min Temperature 52 °F 44 °F 23 °F (1937)
Growing Degree Days 16 (Base 50)    
Moisture  
Dew Point 53 °F    
Average Humidity 64    
Maximum Humidity 85    
Minimum Humidity 41    
Precipitation  
Precipitation 0.00 in - - ()
Sea Level Pressure  
Sea Level Pressure 30.16 in    
Wind  
Wind Speed 3 mph ()    
Max Wind Speed 7 mph    
Max Gust Speed -    
Visibility 10.0 miles    
Events      
Averages and records for this station are not official NWS values.
T = Trace of Precipitation, MM = Missing Value Source: Averaged Metar Reports

Daily Weather History Graph

Daily Weather History Graph

Search for Another Location

Airport or City:

Trip Planner

Search our weather history database for the weather conditions in past years. The results will help you decide how hot, cold, wet, or windy it might be!

Date:

Astronomy

Nov. 20, 2012 Rise Set
Actual Time 7:01 AM CST 5:21 PM CST
Civil Twilight 6:34 AM CST 5:48 PM CST
Nautical Twilight 6:04 AM CST 6:18 PM CST
Astronomical Twilight 5:35 AM CST 6:47 PM CST
Moon 12:47 PM CST (11/20) No Moon Set
Length of Visible Light 11h 13m
Length of Day
10h 20m
First Quarter, 51% of the Moon is Illuminated
Nov 20
First Quarter
Nov 28
Full
Dec 6
Last Quarter
Dec 13
New
Dec 19
First Quarter

Hourly Weather History & Observations

Time (CST) Temp. Dew Point Humidity Pressure Visibility Wind Dir Wind Speed Gust Speed Precip Events Conditions
12:15 AM 59.2 °F 48.7 °F 68% 30.14 in 10.0 mi South 5.8 mph - N/A   Clear
12:35 AM 60.1 °F 48.7 °F 66% 30.13 in 10.0 mi South 4.6 mph - N/A   Clear
12:55 AM 59.9 °F 49.1 °F 67% 30.14 in 10.0 mi SSE 4.6 mph - N/A   Clear
1:15 AM 59.2 °F 49.1 °F 69% 30.14 in 10.0 mi South 5.8 mph - N/A   Clear
1:35 AM 58.1 °F 49.1 °F 72% 30.14 in 10.0 mi South 4.6 mph - N/A   Clear
2:15 AM 57.2 °F 49.1 °F 74% 30.14 in 10.0 mi South 5.8 mph - N/A   Clear
2:35 AM 56.1 °F 48.9 °F 77% 30.14 in 10.0 mi South 4.6 mph - N/A   Clear
6:15 AM 52.0 °F 47.7 °F 85% 30.14 in 10.0 mi SSE 3.5 mph - N/A   Clear
6:35 AM 52.7 °F 47.8 °F 84% 30.15 in 10.0 mi Calm Calm - N/A   Clear
6:55 AM 52.5 °F 47.5 °F 83% 30.16 in 10.0 mi SSE 4.6 mph - N/A   Clear
7:15 AM 52.2 °F 47.5 °F 84% 30.16 in 10.0 mi Calm Calm - N/A   Clear
7:35 AM 53.1 °F 47.3 °F 81% 30.17 in 10.0 mi Calm Calm - N/A   Clear
7:55 AM 54.1 °F 47.7 °F 79% 30.18 in 10.0 mi SSE 3.5 mph - N/A   Clear
8:15 AM 56.3 °F 47.8 °F 73% 30.18 in 10.0 mi South 4.6 mph - N/A   Clear
8:35 AM 58.6 °F 49.1 °F 71% 30.19 in 10.0 mi South 5.8 mph - N/A   Clear
8:55 AM 60.4 °F 50.4 °F 69% 30.20 in 10.0 mi South 4.6 mph - N/A   Clear
9:15 AM 61.7 °F 51.8 °F 70% 30.20 in 10.0 mi SSW 4.6 mph - N/A   Clear
9:35 AM 62.6 °F 52.0 °F 68% 30.20 in 10.0 mi SSW 4.6 mph - N/A   Clear
9:55 AM 64.4 °F 53.4 °F 67% 30.20 in 10.0 mi SW 3.5 mph - N/A   Clear
10:15 AM 66.2 °F 54.7 °F 66% 30.20 in 10.0 mi Calm Calm - N/A   Clear
10:35 AM 66.7 °F 55.2 °F 66% 30.20 in 10.0 mi Calm Calm - N/A   Clear
10:55 AM 69.1 °F 56.1 °F 63% 30.20 in 10.0 mi Calm Calm - N/A   Clear
11:15 AM 71.2 °F 56.1 °F 59% 30.20 in 10.0 mi Calm Calm - N/A   Clear
11:35 AM 72.5 °F 56.3 °F 57% 30.19 in 10.0 mi Calm Calm - N/A   Clear
11:55 AM 74.3 °F 56.5 °F 54% 30.18 in 10.0 mi NE 3.5 mph - N/A   Clear
12:15 PM 74.7 °F 56.5 °F 53% 30.17 in 10.0 mi Calm Calm - N/A   Clear
12:35 PM 76.8 °F 56.7 °F 50% 30.17 in 10.0 mi East 6.9 mph - N/A   Clear
12:55 PM 77.0 °F 56.8 °F 50% 30.15 in 10.0 mi ENE 6.9 mph - N/A   Clear
1:15 PM 78.3 °F 56.7 °F 47% 30.14 in 10.0 mi Calm Calm - N/A   Clear
1:35 PM 78.6 °F 56.3 °F 46% 30.14 in 10.0 mi NNE 4.6 mph - N/A   Clear
1:55 PM 77.5 °F 55.2 °F 46% 30.13 in 10.0 mi Calm Calm - N/A   Clear
2:15 PM 78.1 °F 54.0 °F 43% 30.12 in 10.0 mi Calm Calm - N/A   Clear
2:35 PM 78.3 °F 54.7 °F 44% 30.12 in 10.0 mi SSE 3.5 mph - N/A   Clear
2:55 PM 79.3 °F 53.6 °F 41% 30.12 in 10.0 mi Calm Calm - N/A   Clear
3:15 PM 78.8 °F 53.8 °F 42% 30.11 in 10.0 mi Calm Calm - N/A   Clear
3:35 PM 77.5 °F 55.6 °F 47% 30.11 in 10.0 mi West 5.8 mph - N/A   Clear
3:55 PM 77.5 °F 55.4 °F 46% 30.11 in 10.0 mi WSW 4.6 mph - N/A   Clear
4:15 PM 77.0 °F 54.9 °F 46% 30.12 in 10.0 mi WSW 3.5 mph - N/A   Clear
4:35 PM 76.6 °F 54.7 °F 46% 30.12 in 10.0 mi Calm Calm - N/A   Clear
4:55 PM 75.4 °F 54.5 °F 48% 30.12 in 10.0 mi Calm Calm - N/A   Clear
5:15 PM 73.9 °F 54.5 °F 51% 30.13 in 10.0 mi Calm Calm - N/A   Clear
5:35 PM 72.3 °F 54.3 °F 53% 30.13 in 10.0 mi Calm Calm - N/A   Clear
5:55 PM 70.7 °F 54.3 °F 56% 30.14 in 10.0 mi Calm Calm - N/A   Clear
6:15 PM 70.5 °F 54.3 °F 56% 30.14 in 10.0 mi Calm Calm - N/A   Clear
6:35 PM 65.7 °F 53.6 °F 65% 30.15 in 10.0 mi Calm Calm - N/A   Clear
6:55 PM 66.4 °F 53.8 °F 64% 30.16 in 10.0 mi ESE 3.5 mph - N/A   Clear
7:15 PM 67.5 °F 53.8 °F 61% 30.16 in 10.0 mi SE 4.6 mph - N/A   Clear
7:35 PM 65.7 °F 53.4 °F 65% 30.17 in 10.0 mi South 4.6 mph - N/A   Clear
7:55 PM 63.7 °F 53.1 °F 68% 30.17 in 10.0 mi South 3.5 mph - N/A   Clear
8:15 PM 64.6 °F 53.2 °F 67% 30.17 in 10.0 mi South 5.8 mph - N/A   Clear
8:35 PM 63.9 °F 53.2 °F 68% 30.17 in 10.0 mi South 4.6 mph - N/A   Clear
8:55 PM 61.9 °F 53.1 °F 73% 30.18 in 10.0 mi Calm Calm - N/A   Clear
9:15 PM 63.0 °F 52.9 °F 70% 30.18 in 10.0 mi Calm Calm - N/A   Clear
9:35 PM 58.5 °F 51.6 °F 78% 30.19 in 10.0 mi NNW 4.6 mph - N/A   Clear
9:55 PM 58.3 °F 52.2 °F 80% 30.19 in 10.0 mi Calm Calm - N/A   Clear
10:15 PM 59.2 °F 52.3 °F 78% 30.19 in 10.0 mi Calm Calm - N/A   Clear
10:35 PM 58.8 °F 52.5 °F 80% 30.19 in 10.0 mi Calm Calm - N/A   Clear
10:55 PM 61.2 °F 52.7 °F 74% 30.19 in 10.0 mi Calm Calm - N/A   Clear
11:15 PM 60.1 °F 52.7 °F 77% 30.19 in 10.0 mi Calm Calm - N/A   Clear
11:35 PM 58.1 °F 52.5 °F 82% 30.19 in 10.0 mi Calm Calm - N/A   Clear
11:55 PM 60.8 °F 52.5 °F 74% 30.19 in 10.0 mi SE 3.5 mph - N/A   Clear